Header for Extended Forecast Station List Page

Search by: ID | Name | Date | Parm | Value | Avg | % Avg
Sort by: ID | Name | Date | Parm | Value | Avg | % Avg

Enter search or view all records.

Click on id for station plot
#IDNameDateParmValueAvg% Avg
0HWRI1BIG LOST-AT HOWELL RANCH NEAR CHILLY04-14-2014DISCHARGE (KAF)8415853
1MACI1BIG LOST-MACKAY RESERVOIR NEAR MACKAY04-14-2014INFLOW (KAF)7515847
2HALI1BIG WOOD-AT HAILEY04-14-2014DISCHARGE (KAF)18022381
3MAGI1BIG WOOD-MAGIC DAM04-14-2014INFLOW (KAF)14120968
4BITM8BITTERROOT-NEAR MISSOULA04-14-2014DISCHARGE (KAF)15481169132
5BONM8BLACKFOOT-NEAR BONNER04-14-2014DISCHARGE (KAF)1180773153
6BIGI1BOISE-AT GLENWOOD BRIDGE04-14-2014DISCHARGE (KAF)27644462
7LUCI1BOISE-LUCKY PEAK DAM04-14-2014INFLOW (KAF)900MM
8PARI1BOISE-NEAR PARMA04-14-2014DISCHARGE (KAF)23739859
9HOTI1BRUNEAU-NEAR HOT SPRINGS04-14-2014DISCHARGE (KAF)7316345
10BULO3BULLY CREEK-BULLY CREEK DAM04-14-2014INFLOW (KAF)1141
11BUDW1BUMPING-BUMPING LAKE DAM04-14-2014INFLOW (KAF)7410869
12CHDW1CHELAN-LAKE CHELAN DAM04-14-2014INFLOW (KAF)94797198
13ABOM8CLARK FORK-ABOVE MISSOULA04-14-2014DISCHARGE (KAF)19281363141
14DLGM8CLARK FORK-AT DEER LODGE04-14-2014DISCHARGE (KAF)647388
15SRGM8CLARK FORK-AT ST REGIS04-14-2014DISCHARGE (KAF)43103435125
16BELM8CLARK FORK-BELOW MISSOULA04-14-2014DISCHARGE (KAF)34762574135
17CABI1CLARK FORK-CABINET GORGE DAM04-14-2014INFLOW (KAF)109719039121
18NOXM8CLARK FORK-NOXON RAPIDS DAM04-14-2014INFLOW (KAF)99558534117
19DRMM8CLARK FORK-NR DRUMMOND04-14-2014DISCHARGE (KAF)276MM
20CLUW1CLE ELUM-CLE ELUM LAKE04-14-2014INFLOW (KAF)369357103
21ORFI1CLEARWATER-AT OROFINO04-14-2014DISCHARGE (KAF)53184213126
22SPDI1CLEARWATER-AT SPALDING04-14-2014DISCHARGE (KAF)72416299115
23COEI1COEUR D ALENE-COEUR D ALENE LAKE04-14-2014INFLOW (KAF)22762183104
24CIBW1COLUMBIA-AT INTL BOUNDARY04-14-2014DISCHARGE (KAF)33265MM
25BONO3COLUMBIA-BONNEVILLE DAM04-14-2014INFLOW (KAF)58741MM
26CHJW1COLUMBIA-CHIEF JOSEPH DAM04-14-2014INFLOW (KAF)3336031339106
27GCDW1COLUMBIA-GRAND COULEE DAM04-14-2014INFLOW (KAF)374104154890
28JDAO3COLUMBIA-JOHN DAY DAM04-14-2014INFLOW (KAF)577376422790
29MCDW1COLUMBIA-MCNARY DAM04-14-2014INFLOW (KAF)563536245690
30PRWW1COLUMBIA-PRIEST RAPIDS DAM04-14-2014INFLOW (KAF)377024213989
31RRHW1COLUMBIA-ROCKY REACH DAM04-14-2014INFLOW (KAF)3633234468105
32TDAO3COLUMBIA-THE DALLES DAM04-14-2014INFLOW (KAF)5798757554101
33WANW1COLUMBIA-WANAPUM DAM04-14-2014INFLOW (KAF)377004133191
34WELW1COLUMBIA-WELLS DAM04-14-2014INFLOW (KAF)3560433927105
35DEDI1DEADWOOD-NEAR LOWMAN04-14-2014INFLOW (KAF)10712884
36MODO3DESCHUTES-AT MOODY NR BIGGS04-14-2014DISCHARGE (KAF)1222128295
37ARDW1ENTIAT-NEAR ARDENVOIR04-14-2014DISCHARGE (KAF)208193108
38CHEI1FALLS-NEAR CHESTER04-14-2014DISCHARGE (KAF)338305111
39CFMM8FLATHEAD-AT COLUMBIA FALLS04-14-2014DISCHARGE (KAF)48124048119
40KERM8FLATHEAD-KERR DAM04-14-2014INFLOW (KAF)58075044115
41TRYO3GRANDE RONDE-TROY04-14-2014DISCHARGE (KAF)12251073114
42REXI1HENRYS FORK-AT REXBURG04-14-2014DISCHARGE (KAF)765694110
43ANTI1HENRYS FORK-AT ST. ANTHONY04-14-2014DISCHARGE (KAF)621604103
44IPDI1HENRYS FORK-ISLAND PARK DAM04-14-2014INFLOW (KAF)17220684
45HODO3HOOD-NEAR TUCKER BRIDGE04-14-2014DISCHARGE (KAF)15019178
46SERO3JOHN DAY-AT SERVICE CK04-14-2014DISCHARGE (KAF)32963352
47KADW1KACHESS-KACHESS DAM04-14-2014INFLOW (KAF)859391
48LAUW1KETTLE-AT LAURIER04-14-2014DISCHARGE (KAF)1524166092
49PITW1KLICKITAT-NEAR PITT04-14-2014DISCHARGE (KAF)35642883
50BFEI1KOOTENAI-AT BONNERS FERRY04-14-2014STAGE (FT)MMM
51LEOI1KOOTENAI-AT LEONIA04-14-2014DISCHARGE (KAF)59265229113
52LYDM8KOOTENAI-LIBBY DAM04-14-2014INFLOW (KAF)58975736103
53LWRI1LITTLE WOOD-LITTLE WOOD DAM04-14-2014INFLOW (KAF)197028
54BERO3MALHEUR-AGENCY VALLEY DAM04-14-2014INFLOW (KAF)113234
55VALO3MALHEUR-NEAR VALE04-14-2014DISCHARGE (KAF)0451
56WRMO3MALHEUR-WARM SPRINGS DAM04-14-2014INFLOW (KAF)132452
57MYKO3MCKAY CREEK-NEAR PILOT ROCK04-14-2014DISCHARGE (KAF)1614120
58PATW1METHOW-NEAR PATEROS04-14-2014DISCHARGE (KAF)828816101
59WGCM8MF FLATHEAD-NEAR WEST GLACIER04-14-2014DISCHARGE (KAF)18751524123
60CLFW1NACHES-NEAR CLIFFDEL04-14-2014DISCHARGE (KAF)31633395
61NACW1NACHES-NEAR NACHES04-14-2014DISCHARGE (KAF)505465109
62DWRI1NF CLEARWATER-DWORSHAK DAM04-14-2014INFLOW (KAF)27442403114
63FCFM8NF FLATHEAD-NEAR COLUMBIA FALLS04-14-2014DISCHARGE (KAF)17831568114
64MONO3NF JOHN DAY-AT MONUMENT04-14-2014DISCHARGE (KAF)20745446
65CSDI1NF PAYETTE-CASCADE DAM04-14-2014INFLOW (KAF)43644997
66TONW1OKANOGAN-NEAR TONASKET04-14-2014DISCHARGE (KAF)14151404101
67OWYO3OWYHEE-BELOW OWYHEE DAM04-14-2014INFLOW (KAF)5122723
68EMMI1PAYETTE-NEAR EMMETT04-14-2014DISCHARGE (KAF)920112082
69ALFW1PEND OREILLE-ALBENI FALLS DAM04-14-2014INFLOW (KAF)1174210480112
70HOPI1PEND OREILLE-PEND OREILLE LAKE NR HOPE04-14-2014LAKE ELEVATION (FT)MMM
71PIHI1PORTNEUF-AT POCATELLO04-14-2014DISCHARGE (KAF)266738
72PRTI1PRIEST-NEAR PRIEST RIVER04-14-2014DISCHARGE (KAF)69572396
73RCCM8ROCK CREEK-NEAR CLINTON04-14-2014DISCHARGE (KAF)394252156
74WHBI1SALMON-AT WHITEBIRD04-14-2014DISCHARGE (KAF)55885519101
75ARAI1SF BOISE-ANDERSON RANCH DAM04-14-2014INFLOW (KAF)35547275
76HHWM8SF FLATHEAD-HUNGRY HORSE DAM04-14-2014INFLOW (KAF)20461855110
77PLDI1SF SNAKE-PALISADES DAM04-14-2014INFLOW (KAF)32892938112
78SIFI1SNAKE-AB EAGLE ROCK NR IDAHO FALLS04-14-2014DISCHARGE (KAF)25572451104
79AFRI1SNAKE-AMERICAN FALLS RESERVOIR04-14-2014INFLOW (KAF)2234226998
80SNAI1SNAKE-AT BLACKFOOT04-14-2014DISCHARGE (KAF)18001759102
81MILI1SNAKE-AT MILNER04-14-2014DISCHARGE (KAF)3129610
82WEII1SNAKE-AT WEISER04-14-2014DISCHARGE (KAF)2894441066
83SWAI1SNAKE-BELOW SWAN FALLS04-14-2014DISCHARGE (KAF)1485222967
84BRNI1SNAKE-BROWNLEE DAM04-14-2014INFLOW (KAF)3291474769
85IHDW1SNAKE-ICE HARBOR DAM04-14-2014INFLOW (KAF)177541846496
86JLKW4SNAKE-JACKSON LAKE AT DAM04-14-2014INFLOW (KAF)996753132
87LGSW1SNAKE-LITTLE GOOSE DAM04-14-2014INFLOW (KAF)176971853395
88LGDW1SNAKE-LOWER GRANITE DAM04-14-2014INFLOW (KAF)177051852096
89LMNW1SNAKE-LOWER MONUMENTAL DAM04-14-2014INFLOW (KAF)177481859295
90ALPW4SNAKE-NEAR ALPINE04-14-2014DISCHARGE (KAF)23232052113
91ANAW1SNAKE-NEAR ANATONE04-14-2014DISCHARGE (KAF)104661220386
92BFTI1SNAKE-NEAR BLACKFOOT04-14-2014DISCHARGE (KAF)17501651106
93HEII1SNAKE-NEAR HEISE04-14-2014DISCHARGE (KAF)31503036104
94JKSW4SNAKE-NEAR JACKSON04-14-2014DISCHARGE (KAF)17951589113
95SHYI1SNAKE-NEAR SHELLEY04-14-2014DISCHARGE (KAF)23372245104
96LLKW1SPOKANE-AT LONGLAKE04-14-2014INFLOW (KAF)2550268695
97SPOW1SPOKANE-AT SPOKANE04-14-2014DISCHARGE (KAF)2337MM
98SJMI1ST JOE-AT ST MARIES04-14-2014STAGE (FT)MMM
99SATI1ST MARIES-NEAR SANTA04-14-2014DISCHARGE (KAF)8010874
100STRM8ST. REGIS-NEAR ST. REGIS04-14-2014DISCHARGE (KAF)254231110
101TNAW1TEANAWAY-BELOW FORKS04-14-2014DISCHARGE (KAF)929696
102TEAI1TETON-NEAR ST. ANTHONY04-14-2014DISCHARGE (KAF)425338126
103RILW1TIETON-RIMROCK LAKE NEAR RIMROCK04-14-2014INFLOW (KAF)18218399
104PDTO3UMATILLA-AT PENDLETON04-14-2014DISCHARGE (KAF)8510086
105GIBO3UMATILLA-NEAR GIBBON04-14-2014DISCHARGE (KAF)515494
106UMAO3UMATILLA-NEAR UMATILLA04-14-2014DISCHARGE (KAF)7752149
107TCHW1WALLA WALLA-NEAR TOUCHET04-14-2014DISCHARGE (KAF)8483101
108WSRI1WEISER-NEAR WEISER04-14-2014DISCHARGE (KAF)19330962
109PESW1WENATCHEE-AT PESHASTIN04-14-2014DISCHARGE (KAF)13661365100
110UNDW1WHITE SALMON-NEAR UNDERWOOD04-14-2014DISCHARGE (KAF)22629078
111RIDI1WILLOW CREEK-RIRIE DAM04-14-2014INFLOW (KAF)8338218
112EASW1YAKIMA-AT EASTON04-14-2014DISCHARGE (KAF)17292188
113KIOW1YAKIMA-AT KIONA04-14-2014DISCHARGE (KAF)71275994
114UMTW1YAKIMA-AT UMTANUM04-14-2014DISCHARGE (KAF)78378999
115KEDW1YAKIMA-KEECHELUS LAKE04-14-2014INFLOW (KAF)9710097
116PARW1YAKIMA-NEAR PARKER04-14-2014DISCHARGE (KAF)447409109